Yaogan 31 hao 02 zu 02 xing

operational
NORAD ID: 47533 Int'l Des: 2021-007 Owner: ZLZB Country: CN Constellation: yaogan
LEO

About Yaogan 31 hao 02 zu 02 xing

Description loading...

Live Position

Loading 3D Globe...

Upcoming Passes

Altitude History

Altitude vs Time

uPlot chart will show altitude changes over time

Two-Line Element Set

1 47533U 21007B 25345.15070958 -.00000059 00000-0 49001-4 0 9999
2 47533 63.4046 265.3389 0159526 359.9176 0.1797 13.45428946238936
Epoch: Dec 11, 2025 • Age: 8 hours

Current Status

Altitude 1202.8 km
Velocity 7.20 km/s
Sub-Earth Point -24.03°S, 159.86°W
Launch Date Jan 29, 2021
Age 4.8 years
Type military

Technical Details

Classification Payload
Mass 500.00 kg
Dry Mass 500.00 kg
Total Mass 500.00 kg
Length 0.50 m
Diameter 0.50 m
Span 1.00 m
Shape Box + 2 Pan
Manufacturer DFHZ
Phase Status In Orbit
Owner/State ZLZB/CN

Large Constellations

Loading constellations...